Location: Marne
(34.0056°N, 117.9064°W)
Time: 03:27:03
(UTC+00:00)

USA 32 - Pass Details

Date: 18 January 2020
Orbit: 777 x 783 km, 85.0° (Epoch: 29 January)

Event Time Altitude Azimuth Distance (km) Brightness Sun altitude
Rises 02:38:45 0° 190° (S) 3,245 7.6 -18.8°
Reaches altitude 10° 02:41:07 10° 194° (SSW) 2,320 6.8 -19.3°
Maximum altitude 02:46:16 63° 275° (W) 866 4.5 -20.3°
Drops below altitude 10° 02:51:27 10° 356° (N) 2,332 6.4 -21.4°
Sets 02:53:50 0° 0° (N) 3,263 7.2 -21.8°
